Valparaiso, IN

3:24 AM CST on February 11, 2016 (GMT -0600)
Porter County Municipal

Weather History for KVPZ - October, 2010

Change the Weather History Date:

Friday, October 15, 2010

  Actual Average Record
Temperature  
Mean Temperature 53 °F 53 °F  
Max Temperature 62 °F 63 °F 78 °F (1999)
Min Temperature 44 °F 42 °F 29 °F (2006)
Degree Days  
Heating Degree Days 12 13  
Month to date heating degree days 161  
Since 1 July heating degree days 291  
Cooling Degree Days 0 0  
Month to date cooling degree days 11  
Year to date cooling degree days 713  
Growing Degree Days 3 (Base 50)    
Moisture  
Dew Point 43 °F    
Average Humidity 69    
Maximum Humidity 97    
Minimum Humidity 46    
Precipitation  
Precipitation 0.00 in 0.11 in 0.75 in (2008)
Month to date precipitation 1.54  
Year to date precipitation 30.29  
Sea Level Pressure  
Sea Level Pressure 30.00 in    
Wind  
Wind Speed 7 mph (North)    
Max Wind Speed 13 mph    
Max Gust Speed 20 mph    
Visibility 10 miles    
Events      
T = Trace of Precipitation, MM = Missing Value Source: NWS Daily Summary

Daily Weather History Graph

Daily Weather History Graph

Search for Another Location

Airport or City:

Trip Planner

Search our weather history database for the weather conditions in past years. The results will help you decide how hot, cold, wet, or windy it might be!

Date:

Astronomy

Oct. 15, 2010 Rise Set
Actual Time 6:59 AM CDT 6:07 PM CDT
Civil Twilight 6:32 AM CDT 6:34 PM CDT
Nautical Twilight 5:59 AM CDT 7:06 PM CDT
Astronomical Twilight 5:27 AM CDT 7:38 PM CDT
Moon 2:33 PM CDT (10/15) No Moon Set
Length of Visible Light 12h 02m
Length of Day
11h 07m
First Quarter, 58% of the Moon is Illuminated
Oct 15
First Quarter
Oct 22
Full
Oct 30
Last Quarter
Nov 5
New
Nov 13
First Quarter

Hourly Weather History & Observations

Time (CDT) Temp. Dew Point Humidity Pressure Visibility Wind Dir Wind Speed Gust Speed Precip Events Conditions
12:53 AM 52.0 °F 35.1 °F 53% 29.72 in 10.0 mi WNW 8.1 mph - N/A   Clear
1:53 AM 57.0 °F 44.1 °F 62% 29.74 in 10.0 mi NNW 11.5 mph 18.4 mph N/A   Clear
2:53 AM 54.0 °F 39.9 °F 59% 29.79 in 10.0 mi NNE 6.9 mph - N/A   Mostly Cloudy
3:53 AM 53.1 °F 43.0 °F 69% 29.82 in 10.0 mi North 5.8 mph - N/A   Clear
4:53 AM 55.0 °F 44.1 °F 67% 29.85 in 10.0 mi North 9.2 mph 16.1 mph N/A   Mostly Cloudy
5:53 AM 52.0 °F 46.0 °F 80% 29.88 in 10.0 mi Calm Calm - N/A   Mostly Cloudy
6:53 AM 51.1 °F 46.0 °F 83% 29.91 in 10.0 mi Calm Calm - N/A   Overcast
7:53 AM 54.0 °F 45.0 °F 72% 29.95 in 10.0 mi NNW 8.1 mph - N/A   Overcast
8:53 AM 54.0 °F 46.0 °F 75% 29.98 in 10.0 mi ENE 8.1 mph - N/A   Overcast
9:36 AM 55.4 °F 44.6 °F 67% 30.00 in 10.0 mi NE 6.9 mph - N/A   Overcast
9:53 AM 57.9 °F 45.0 °F 62% 30.01 in 10.0 mi ENE 8.1 mph - N/A   Mostly Cloudy
10:53 AM 57.0 °F 43.0 °F 59% 30.03 in 10.0 mi North 6.9 mph - N/A   Scattered Clouds
11:53 AM 61.0 °F 42.1 °F 50% 30.05 in 10.0 mi North 9.2 mph - N/A   Mostly Cloudy
12:53 PM 61.0 °F 39.9 °F 46% 30.06 in 10.0 mi NNE 9.2 mph 18.4 mph N/A   Scattered Clouds
1:53 PM 60.1 °F 42.1 °F 51% 30.06 in 10.0 mi NNW 12.7 mph 19.6 mph N/A   Partly Cloudy
2:53 PM 57.9 °F 41.0 °F 53% 30.08 in 10.0 mi North 11.5 mph - N/A   Partly Cloudy
3:53 PM 59.0 °F 42.1 °F 53% 30.09 in 10.0 mi North 9.2 mph - N/A   Partly Cloudy
4:53 PM 57.9 °F 43.0 °F 58% 30.10 in 10.0 mi NNW 8.1 mph - N/A   Clear
5:53 PM 55.9 °F 46.0 °F 69% 30.12 in 10.0 mi North 4.6 mph - N/A   Mostly Cloudy
6:53 PM 54.0 °F 46.9 °F 77% 30.12 in 10.0 mi Calm Calm - N/A   Mostly Cloudy
7:53 PM 50.0 °F 46.0 °F 86% 30.14 in 10.0 mi Calm Calm - N/A   Clear
8:53 PM 46.0 °F 44.1 °F 93% 30.14 in 10.0 mi Calm Calm - N/A   Clear
9:53 PM 45.0 °F 44.1 °F 97% 30.15 in 10.0 mi Calm Calm - N/A   Clear
10:53 PM 45.0 °F 44.1 °F 97% 30.15 in 7.0 mi Calm Calm - N/A   Clear
11:53 PM 44.1 °F 42.1 °F 93% 30.15 in 4.0 mi Calm Calm - N/A   Clear